Weather History for KOTH - November, 2011

Change the Weather History Date:

Saturday, November 12, 2011

  Actual Average Record
Temperature  
Mean Temperature 48 °F 49 °F  
Max Temperature 54 °F 56 °F 71 °F (1999)
Min Temperature 41 °F 43 °F 25 °F (1978)
Degree Days  
Heating Degree Days 17 16  
Month to date heating degree days 207 176  
Since 1 July heating degree days 1053 1142  
Cooling Degree Days 0 0  
Month to date cooling degree days 0 0  
Year to date cooling degree days 1 2  
Moisture  
Dew Point 39 °F    
Average Humidity 73    
Maximum Humidity 83    
Minimum Humidity 59    
Precipitation  
Precipitation 0.20 in 0.33 in 1.64 in (1983)
Month to date precipitation 0.98 3.60  
Year to date precipitation 31.89 47.15  
Sea Level Pressure  
Sea Level Pressure 30.02 in    
Wind  
Wind Speed 8 mph (SSE)    
Max Wind Speed 10 mph    
Max Gust Speed -    
Visibility 9 miles    
Events      
T = Trace of Precipitation, MM = Missing Value Source: NWS Daily Summary

Daily Weather History Graph

Daily Weather History Graph

Search for Another Location

Airport or City:

Trip Planner

Search our weather history database for the weather conditions in past years. The results will help you decide how hot, cold, wet, or windy it might be!

Date:

Astronomy

Nov. 12, 2011 Rise Set
Actual Time 7:06 AM PST 4:55 PM PST
Civil Twilight 6:35 AM PST 5:25 PM PST
Nautical Twilight 6:01 AM PST 6:00 PM PST
Astronomical Twilight 5:27 AM PST 6:33 PM PST
Moon 6:12 PM PST (11/12) 8:57 AM PST (11/12)
Length of Visible Light 10h 50m
Length of Day
9h 48m
Waning Gibbous, 96% of the Moon is Illuminated
Nov 12
Waning Gibbous
Nov 18
Last Quarter
Nov 24
New
Dec 2
First Quarter
Dec 10
Full

Hourly Weather History & Observations

Time (PST) Temp. Windchill Dew Point Humidity Pressure Visibility Wind Dir Wind Speed Gust Speed Precip Events Conditions
12:15 AM 46.4 °F 42.9 °F 37.4 °F 71% 29.94 in 10.0 mi North 6.9 mph - N/A   Partly Cloudy
12:35 AM 46.4 °F 45.2 °F 39.2 °F 76% 29.95 in 10.0 mi North 3.5 mph - N/A   Clear
12:55 AM 46.4 °F - 37.4 °F 71% 29.95 in 10.0 mi North - - N/A   Clear
1:15 AM 44.6 °F - 37.4 °F 76% 29.96 in 10.0 mi Calm Calm - N/A   Partly Cloudy
1:35 AM 42.8 °F 39.3 °F 33.8 °F 70% 29.97 in 10.0 mi SSE 5.8 mph - N/A   Clear
1:55 AM 42.8 °F 39.3 °F 35.6 °F 76% 29.97 in 7.0 mi SE 5.8 mph - N/A   Partly Cloudy
2:15 AM 42.8 °F 38.6 °F 37.4 °F 81% 29.97 in 7.0 mi SSE 6.9 mph - N/A   Scattered Clouds
2:35 AM 42.8 °F 39.3 °F 37.4 °F 81% 29.98 in 9.0 mi SE 5.8 mph - N/A   Clear
2:55 AM 42.8 °F 38.0 °F 37.4 °F 81% 29.98 in 3.0 mi SE 8.1 mph - N/A   Scattered Clouds
3:15 AM 42.8 °F 38.6 °F 37.4 °F 81% 29.99 in 1.2 mi SE 6.9 mph - N/A   Overcast
3:35 AM 42.8 °F 38.6 °F 37.4 °F 81% 29.99 in 5.0 mi SE 6.9 mph - N/A   Overcast
4:15 AM 42.8 °F 39.3 °F 35.6 °F 76% 30.00 in 10.0 mi SE 5.8 mph - N/A   Mostly Cloudy
4:35 AM 42.8 °F 38.6 °F 35.6 °F 76% 30.00 in 10.0 mi SE 6.9 mph - N/A   Mostly Cloudy
4:55 AM 42.8 °F 38.0 °F 35.6 °F 76% 30.00 in 10.0 mi SE 8.1 mph - N/A   Overcast
5:15 AM 41.0 °F 36.4 °F 35.6 °F 81% 30.01 in 10.0 mi SSE 6.9 mph - N/A   Scattered Clouds
5:35 AM 42.8 °F 38.6 °F 35.6 °F 76% 30.01 in 10.0 mi SE 6.9 mph - N/A   Mostly Cloudy
5:55 AM 42.8 °F 38.6 °F 37.4 °F 81% 30.02 in 10.0 mi ESE 6.9 mph - N/A   Overcast
6:15 AM 42.8 °F 39.3 °F 37.4 °F 81% 30.02 in 6.0 mi SSE 5.8 mph - 0.02 in   Mostly Cloudy
6:35 AM 42.8 °F 39.3 °F 37.4 °F 81% 30.02 in 10.0 mi SSE 5.8 mph - 0.02 in   Overcast
6:55 AM 42.8 °F 39.3 °F 37.4 °F 81% 30.03 in 10.0 mi SSE 5.8 mph - N/A   Overcast
7:15 AM 42.8 °F 38.0 °F 37.4 °F 81% 30.04 in 10.0 mi SE 8.1 mph - N/A   Mostly Cloudy
7:35 AM 42.8 °F 38.0 °F 35.6 °F 76% 30.04 in 10.0 mi South 8.1 mph - N/A   Partly Cloudy
7:55 AM 42.8 °F 37.5 °F 37.4 °F 81% 30.05 in 10.0 mi SE 9.2 mph - N/A   Mostly Cloudy
8:15 AM 44.6 °F 40.7 °F 37.4 °F 76% 30.06 in 10.0 mi SSE 6.9 mph - N/A   Overcast
8:35 AM 44.6 °F 40.7 °F 37.4 °F 76% 30.07 in 10.0 mi SSE 6.9 mph - N/A   Overcast
8:55 AM 44.6 °F 39.7 °F 39.2 °F 81% 30.07 in 10.0 mi SSE 9.2 mph - N/A   Overcast
9:15 AM 46.4 °F 41.9 °F 39.2 °F 76% 30.06 in 10.0 mi SSE 9.2 mph - N/A   Overcast
9:35 AM 46.4 °F 41.9 °F 39.2 °F 76% 30.07 in 10.0 mi SE 9.2 mph - N/A   Mostly Cloudy
9:55 AM 48.2 °F - 39.2 °F 71% 30.07 in 10.0 mi SE 8.1 mph - N/A   Partly Cloudy
10:15 AM 48.2 °F - 42.8 °F 82% 30.07 in 10.0 mi SSE 6.9 mph - N/A   Mostly Cloudy
10:35 AM 50.0 °F - 42.8 °F 76% 30.08 in 10.0 mi ESE 6.9 mph - N/A   Overcast
10:55 AM 51.8 °F - 42.8 °F 71% 30.07 in 10.0 mi SE 8.1 mph - N/A   Overcast
11:15 AM 51.8 °F - 44.6 °F 76% 30.07 in 10.0 mi SE 9.2 mph - N/A   Overcast
11:35 AM 53.6 °F - 42.8 °F 67% 30.06 in 10.0 mi SSE 8.1 mph - N/A   Overcast
11:55 AM 53.6 °F - 42.8 °F 67% 30.06 in 10.0 mi South 8.1 mph - N/A   Overcast
12:15 PM 53.6 °F - 39.2 °F 58% 30.06 in 10.0 mi South 4.6 mph - N/A   Overcast
12:35 PM 53.6 °F - 39.2 °F 58% 30.05 in 10.0 mi South 6.9 mph - N/A   Overcast
12:55 PM 53.6 °F - 39.2 °F 58% 30.05 in 10.0 mi South 5.8 mph - N/A   Mostly Cloudy
1:15 PM 53.6 °F - 39.2 °F 58% 30.05 in 10.0 mi SSW 8.1 mph - N/A   Partly Cloudy
1:35 PM 53.6 °F - 37.4 °F 54% 30.04 in 10.0 mi SSW 6.9 mph - N/A   Mostly Cloudy
1:55 PM 53.6 °F - 41.0 °F 62% 30.05 in 10.0 mi West 8.1 mph - N/A   Overcast
2:15 PM 51.8 °F - 41.0 °F 67% 30.05 in 10.0 mi WSW 8.1 mph - N/A   Overcast
2:35 PM 51.8 °F - 39.2 °F 62% 30.05 in 10.0 mi WSW 8.1 mph - N/A   Overcast
2:55 PM 51.8 °F - 39.2 °F 62% 30.04 in 8.0 mi WSW 9.2 mph - N/A   Overcast
3:15 PM 51.8 °F - 39.2 °F 62% 30.04 in 10.0 mi WSW 5.8 mph - N/A   Overcast
3:35 PM 51.8 °F - 39.2 °F 62% 30.04 in 10.0 mi WSW 6.9 mph - N/A   Overcast
3:55 PM 51.8 °F - 39.2 °F 62% 30.04 in 9.0 mi WSW 5.8 mph - N/A   Overcast
4:15 PM 51.8 °F - 39.2 °F 62% 30.02 in 10.0 mi South 8.1 mph - N/A   Overcast
4:35 PM 51.8 °F - 39.2 °F 62% 30.02 in 10.0 mi SSW 9.2 mph - N/A   Mostly Cloudy
4:55 PM 51.8 °F - 39.2 °F 62% 30.02 in 10.0 mi SSW 8.1 mph - N/A   Overcast
5:15 PM 50.0 °F - 39.2 °F 66% 30.01 in 10.0 mi South 9.2 mph - N/A   Overcast
5:35 PM 50.0 °F - 39.2 °F 66% 30.01 in 10.0 mi South 6.9 mph - N/A   Overcast
5:55 PM 50.0 °F - 39.2 °F 66% 30.01 in 10.0 mi South 10.4 mph - N/A   Overcast
6:15 PM 50.0 °F - 39.2 °F 66% 30.00 in 10.0 mi South 9.2 mph - N/A   Overcast
6:35 PM 50.0 °F - 39.2 °F 66% 30.01 in 10.0 mi South 8.1 mph - N/A   Overcast
6:55 PM 48.2 °F - 41.0 °F 76% 30.01 in 7.0 mi South 6.9 mph - N/A   Overcast
7:15 PM 48.2 °F - 42.8 °F 82% 30.02 in 5.0 mi South 8.1 mph - 0.01 in   Mostly Cloudy
7:35 PM 48.2 °F - 42.8 °F 82% 30.02 in 7.0 mi South 8.1 mph - 0.02 in   Overcast
7:55 PM 48.2 °F - 42.8 °F 82% 30.02 in 4.0 mi South 9.2 mph - 0.05 in   Overcast
8:15 PM 48.2 °F - 41.0 °F 76% 30.00 in 5.0 mi South 9.2 mph - 0.03 in   Overcast
8:35 PM 48.2 °F - 42.8 °F 82% 29.99 in 6.0 mi South 9.2 mph - 0.04 in   Overcast
8:55 PM 48.2 °F - 42.8 °F 82% 29.99 in 8.0 mi South 9.2 mph - 0.04 in   Overcast
9:15 PM 48.2 °F - 42.8 °F 82% 30.00 in 5.0 mi South 8.1 mph - N/A   Overcast
9:35 PM 48.2 °F - 42.8 °F 82% 30.00 in 3.0 mi SSE 6.9 mph - 0.02 in   Overcast
9:55 PM 48.2 °F - 42.8 °F 82% 29.99 in 3.0 mi SSE 8.1 mph - 0.04 in   Overcast
10:15 PM 48.2 °F - 42.8 °F 82% 29.98 in 5.0 mi SSE 8.1 mph - N/A   Overcast
10:35 PM 48.2 °F - 42.8 °F 82% 29.98 in 7.0 mi SSE 8.1 mph - 0.02 in   Overcast
10:55 PM 48.2 °F - 42.8 °F 82% 29.99 in 8.0 mi South 6.9 mph - 0.02 in   Overcast
11:15 PM 48.2 °F - 42.8 °F 82% 29.99 in 7.0 mi SE 8.1 mph - 0.01 in   Overcast
11:35 PM 48.2 °F - 42.8 °F 82% 30.00 in 5.0 mi SE 5.8 mph - 0.01 in   Overcast
11:55 PM 48.2 °F - 42.8 °F 82% 30.01 in 3.0 mi SSE 5.8 mph - N/A   Overcast